KE7YUP Weather Reports


time (UTC)temp
C
wind
direction
speed
KPH
gust
KPH
rain 1hr
cm
rain 24hr
cm
rain mn
cm
humidity
%
barometer
mb
20260906082216 20 57 4.8 6.4 0.00 0.00 0.00 40 1019.5
20260906081218 20 57 3.2 6.4 0.00 0.00 0.00 39 1019.6
20260906080216 20 349 6.4 8.0 0.00 0.00 0.00 36 1019.5
20260906075217 20 249 3.2 4.8 0.00 0.00 0.00 34 1019.8
20260906074216 21 54 3.2 4.8 0.00 0.00 0.00 29 1019.6
20260906073216 21 7 4.8 8.0 0.00 0.00 0.00 28 1019.3
20260906072216 20 68 4.8 6.4 0.00 0.00 0.00 29 1019.1
20260906071216 20 40 3.2 3.2 0.00 0.00 0.00 29 1018.9
20260906070216 20 40 1.6 4.8 0.00 0.00 0.00 29 1019.0
20260906065216 20 173 1.6 3.2 0.00 0.00 0.00 29 1018.9
20260906064236 20 173 3.2 8.0 0.00 0.00 0.00 29 1018.8
20260906063216 20 173 1.6 1.6 0.00 0.00 0.00 29 1018.8
20260906062236 20 224 3.2 8.0 0.00 0.00 0.00 28 1018.7
20260906061257 21 249 4.8 11.3 0.00 0.00 0.00 27 1018.6
20260906060216 22 249 1.6 3.2 0.00 0.00 0.00 26 1018.7
20260906055216 22 0.0 1.6 0.00 0.00 0.00 25 1018.9
20260906054235 23 204 6.4 11.3 0.00 0.00 0.00 24 1018.9
20260906053215 23 202 8.0 12.9 0.00 0.00 0.00 23 1019.1
20260906052216 23 196 9.7 22.5 0.00 0.00 0.00 22 1019.1
20260906051215 24 190 14.5 20.9 0.00 0.00 0.00 21 1019.2
20260906050255 24 202 16.1 24.1 0.00 0.00 0.00 20 1019.2
20260906045215 24 185 14.5 27.4 0.00 0.00 0.00 20 1019.4
20260906044235 24 200 6.4 17.7 0.00 0.00 0.00 20 1019.0
20260906043215 24 208 11.3 17.7 0.00 0.00 0.00 21 1018.6
20260906042215 23 196 4.8 8.0 0.00 0.00 0.00 21 1018.6
20260906041215 23 244 1.6 6.4 0.00 0.00 0.00 21 1018.2
20260906040215 23 236 1.6 4.8 0.00 0.00 0.00 21 1018.2
20260906035235 23 206 4.8 9.7 0.00 0.00 0.00 20 1018.1
20260906034215 23 237 6.4 8.0 0.00 0.00 0.00 20 1017.9
20260906033215 24 198 3.2 8.0 0.00 0.00 0.00 20 1018.2
20260906032215 24 196 8.0 12.9 0.00 0.00 0.00 20 1018.1
20260906031215 24 194 3.2 14.5 0.00 0.00 0.00 21 1018.0
20260906030215 25 172 1.6 3.2 0.00 0.00 0.00 20 1017.9
20260906025215 25 192 1.6 6.4 0.00 0.00 0.00 20 1017.8
20260906024215 25 178 4.8 14.5 0.00 0.00 0.00 19 1017.2
20260906023215 25 177 4.8 12.9 0.00 0.00 0.00 19 1017.1
20260906022235 26 166 8.0 9.7 0.00 0.00 0.00 19 1017.3
20260906021215 26 173 4.8 11.3 0.00 0.00 0.00 20 1016.8
20260906020235 26 183 6.4 12.9 0.00 0.00 0.00 19 1016.8
20260906015215 27 184 6.4 11.3 0.00 0.00 0.00 19 1016.8
20260906014215 27 199 11.3 14.5 0.00 0.00 0.00 18 1016.4
20260906013215 27 196 8.0 19.3 0.00 0.00 0.00 18 1016.8
20260906012215 27 201 11.3 25.7 0.00 0.00 0.00 17 1016.8
20260906011215 28 199 12.9 22.5 0.00 0.00 0.00 17 1017.5
20260906010215 28 204 17.7 25.7 0.00 0.00 0.00 16 1017.5
20260906005215 28 202 19.3 30.6 0.00 0.00 0.00 16 1017.4
20260906004215 29 206 12.9 24.1 0.00 0.00 0.00 16 1017.7
20260906003217 29 213 20.9 30.6 0.00 0.00 0.00 17 1017.7
20260906002215 29 177 12.9 29.0 0.00 0.00 0.00 17 1017.8
20260906001237 29 187 14.5 22.5 0.00 0.00 0.00 17 1017.7
20260906000219 29 218 11.3 20.9 0.00 0.00 0.00 16 1017.7
20260905235217 29 235 22.5 33.8 0.00 0.00 0.00 16 1017.7
20260905234237 29 197 22.5 32.2 0.00 0.00 0.00 15 1018.2
20260905233257 29 201 11.3 22.5 0.00 0.00 0.00 16 1018.2
20260905232217 30 193 22.5 30.6 0.00 0.00 0.00 15 1018.4
20260905231217 29 176 11.3 17.7 0.00 0.00 0.00 16 1018.4
20260905230237 29 200 14.5 32.2 0.00 0.00 0.00 15 1018.6
20260905225217 29 203 12.9 27.4 0.00 0.00 0.00 16 1018.6
20260905224216 30 205 19.3 37.0 0.00 0.00 0.00 15 1019.0
20260905223216 29 209 19.3 32.2 0.00 0.00 0.00 15 1019.1
20260905222217 29 227 14.5 27.4 0.00 0.00 0.00 14 1019.1
20260905221216 29 223 16.1 27.4 0.00 0.00 0.00 14 1019.0
20260905220216 29 196 14.5 22.5 0.00 0.00 0.00 14 1019.1
20260905215216 29 198 16.1 27.4 0.00 0.00 0.00 13 1019.5
20260905214216 29 224 17.7 43.5 0.00 0.00 0.00 13 1019.7
20260905213217 29 204 14.5 25.7 0.00 0.00 0.00 14 1019.6
20260905212236 28 166 14.5 24.1 0.00 0.00 0.00 13 1019.6
20260905211216 28 154 11.3 25.7 0.00 0.00 0.00 21 1019.9
20260905210216 28 155 12.9 22.5 0.00 0.00 0.00 21 1019.9
20260905205216 28 159 9.7 16.1 0.00 0.00 0.00 22 1020.0
20260905204236 27 167 14.5 20.9 0.00 0.00 0.00 19 1019.4
20260905203216 27 183 9.7 17.7 0.00 0.00 0.00 23 1020.0
20260905202216 27 158 11.3 24.1 0.00 0.00 0.00 23 1019.9
20260905201216 27 158 14.5 22.5 0.00 0.00 0.00 23 1020.1
20260905200216 27 107 8.0 19.3 0.00 0.00 0.00 23 1020.1
20260905195236 27 162 11.3 29.0 0.00 0.00 0.00 23 1020.0
20260905194216 27 151 12.9 22.5 0.00 0.00 0.00 25 1020.3
20260905193216 26 104 12.9 25.7 0.00 0.00 0.00 25 1020.0
20260905192236 26 118 12.9 27.4 0.00 0.00 0.00 25 1020.2
20260905191216 26 93 24.1 40.2 0.00 0.00 0.00 26 1020.4
20260905190236 26 149 16.1 30.6 0.00 0.00 0.00 24 1020.6
20260905185216 26 142 20.9 29.0 0.00 0.00 0.00 25 1020.5
20260905184216 26 102 17.7 27.4 0.00 0.00 0.00 25 1021.1
20260905183216 26 135 14.5 30.6 0.00 0.00 0.00 25 1021.1
20260905182216 25 168 11.3 19.3 0.00 0.00 0.00 26 1021.2
20260905181216 25 153 17.7 29.0 0.00 0.00 0.00 26 1021.2
20260905180216 26 187 19.3 32.2 0.00 0.00 0.00 19 1021.5
20260905175216 25 180 16.1 29.0 0.00 0.00 0.00 21 1021.0
20260905174216 25 122 16.1 30.6 0.00 0.00 0.00 28 1021.0
20260905173216 25 178 17.7 30.6 0.00 0.00 0.00 22 1021.1
20260905172216 25 182 6.4 17.7 0.00 0.00 0.00 28 1021.2
20260905171236 25 202 8.0 14.5 0.00 0.00 0.00 29 1021.4
20260905170216 25 173 12.9 17.7 0.00 0.00 0.00 21 1021.6
20260905165216 25 178 12.9 30.6 0.00 0.00 0.00 21 1021.6
20260905164216 24 188 16.1 24.1 0.00 0.00 0.00 27 1021.1
20260905163216 24 177 12.9 27.4 0.00 0.00 0.00 21 1021.0
20260905162216 23 189 11.3 20.9 0.00 0.00 0.00 25 1020.9
20260905161215 23 75 6.4 8.0 0.00 0.00 0.00 40 1021.3
20260905160216 22 1 4.8 8.0 0.00 0.00 0.00 38 1020.8
20260905155216 21 64 11.3 16.1 0.00 0.00 0.00 42 1020.5
20260905154215 21 56 8.0 16.1 0.00 0.00 0.00 41 1020.8
20260905153236 21 72 9.7 12.9 0.00 0.00 0.00 45 1020.9
20260905152216 21 59 6.4 12.9 0.00 0.00 0.00 45 1021.1
20260905151215 22 103 1.6 4.8 0.00 0.00 0.00 37 1021.3
20260905150215 22 108 3.2 6.4 0.00 0.00 0.00 35 1021.1
20260905145216 22 109 4.8 4.8 0.00 0.00 0.00 34 1021.1
20260905144236 22 109 3.2 3.2 0.00 0.00 0.00 34 1021.5
20260905143216 21 109 1.6 3.2 0.00 0.00 0.00 34 1021.2
20260905142216 20 0.0 0.0 0.00 0.00 0.00 37 1020.7
20260905141216 20 109 0.0 1.6 0.00 0.00 0.00 39 1020.7
20260905140215 20 0.0 0.0 0.00 0.00 0.00 39 1020.5
20260905135215 19 110 0.0 3.2 0.00 0.00 0.00 40 1020.6
20260905134215 18 98 1.6 4.8 0.00 0.00 0.00 41 1020.5
20260905133235 17 98 1.6 4.8 0.00 0.00 0.00 36 1019.8
20260905132215 17 98 4.8 6.4 0.00 0.00 0.00 31 1019.7
20260905131215 17 98 0.0 1.6 0.00 0.00 0.00 30 1019.9
20260905130215 18 98 0.0 3.2 0.00 0.00 0.00 30 1019.7
20260905125215 19 98 1.6 3.2 0.00 0.00 0.00 27 1020.0
20260905124215 19 98 3.2 6.4 0.00 0.00 0.00 27 1019.9
20260905123215 18 56 6.4 9.7 0.00 0.00 0.00 28 1019.4
20260905122215 18 0 4.8 8.0 0.00 0.00 0.00 28 1019.7
20260905121215 18 325 4.8 6.4 0.00 0.00 0.00 27 1019.5
20260905120215 18 341 8.0 9.7 0.00 0.00 0.00 28 1019.5
20260905115215 19 242 1.6 1.6 0.00 0.00 0.00 27 1019.4
20260905114215 19 242 4.8 4.8 0.00 0.00 0.00 27 1019.8
20260905113215 20 236 3.2 4.8 0.00 0.00 0.00 27 1019.8
20260905112215 20 251 3.2 4.8 0.00 0.00 0.00 26 1020.1
20260905111215 20 230 4.8 6.4 0.00 0.00 0.00 25 1020.0
20260905110215 21 193 8.0 14.5 0.00 0.00 0.00 25 1019.9
20260905105215 21 195 9.7 12.9 0.00 0.00 0.00 25 1020.0
20260905104215 21 193 9.7 16.1 0.00 0.00 0.00 25 1020.1
20260905103215 21 182 8.0 14.5 0.00 0.00 0.00 25 1019.9
20260905102215 21 184 12.9 19.3 0.00 0.00 0.00 25 1019.8
20260905101215 21 204 6.4 9.7 0.00 0.00 0.00 25 1019.9
20260905100235 22 201 8.0 14.5 0.00 0.00 0.00 25 1020.0
20260905095215 22 189 11.3 17.7 0.00 0.00 0.00 26 1020.1
20260905094217 22 186 4.8 14.5 0.00 0.00 0.00 27 1019.7
20260905093216 22 182 9.7 16.1 0.00 0.00 0.00 28 1019.7
20260905092217 22 164 12.9 22.5 0.00 0.00 0.00 29 1019.7
20260905091215 22 160 6.4 12.9 0.00 0.00 0.00 30 1019.7
20260905090237 22 159 8.0 17.7 0.00 0.00 0.00 30 1019.9
20260905085217 22 192 9.7 16.1 0.00 0.00 0.00 30 1020.0
20260905084217 22 192 8.0 9.7 0.00 0.00 0.00 30 1019.8
20260905083217 22 179 14.5 27.4 0.00 0.00 0.00 30 1019.7